Wind_Speed
69 71 72 73 74 74 72 69 67 65 63 61 61 60 59 58 56 54 52 50 47 43 38 32 28 24 19 14 9 7 10 17 24 33 40 45 49 52 58 67 76 87 97
70 71 72 73 74 73 71 69 66 64 63 61 60 59 58 58 56 54 51 49 46 42 37 31 26 23 19 14 10 8 9 13 20 27 33 39 43 46 52 59 68 78 88
71 71 72 73 73 73 71 68 65 63 62 61 59 58 57 57 55 53 51 49 46 43 38 31 26 23 19 15 12 9 9 12 17 22 28 33 38 41 46 52 60 69 79
73 72 72 72 72 72 70 67 65 63 61 60 59 58 57 56 55 53 51 48 46 43 39 33 27 23 19 15 12 10 9 11 15 19 24 29 33 36 41 46 53 62 71
73 72 72 72 72 72 70 67 64 62 61 60 58 57 56 55 55 53 51 48 46 43 40 35 29 24 20 16 13 10 10 11 14 17 21 25 29 32 36 41 47 55 63
74 73 72 72 72 71 70 67 64 62 60 59 58 57 56 55 54 53 51 49 47 44 41 36 31 25 21 18 15 12 11 11 13 16 19 23 26 29 33 38 42 49 56
74 73 72 72 71 70 69 66 64 61 59 58 57 56 55 54 53 52 51 49 47 44 41 37 32 27 22 19 16 13 12 12 13 15 18 21 24 27 31 34 39 45 52
74 73 72 72 71 70 69 66 63 61 59 58 56 55 54 53 53 52 50 48 47 45 42 39 34 29 24 19 16 14 12 12 13 15 17 20 22 25 28 32 37 42 48
74 73 72 71 70 69 68 66 63 61 59 57 56 55 53 53 52 52 50 48 47 45 43 40 36 31 25 21 17 14 12 12 13 15 17 19 22 24 27 31 36 41 46
73 73 72 71 70 69 68 66 63 61 58 57 55 55 53 52 52 52 51 49 47 45 44 42 38 33 27 22 18 14 11 11 12 14 17 19 22 23 26 29 34 39 44
72 73 72 71 70 69 67 66 63 60 58 56 55 54 53 51 51 51 51 50 48 46 44 42 39 34 29 23 18 14 11 10 11 13 16 19 21 23 25 29 34 39 43
71 72 71 70 69 68 67 65 63 60 58 56 54 54 52 51 50 50 50 49 48 46 45 43 40 35 30 24 19 14 10 9 10 12 14 17 21 23 26 30 34 38 42
69 70 70 69 68 67 66 65 63 60 58 55 54 53 51 50 50 49 49 49 48 46 45 43 41 37 31 25 20 15 10 8 9 11 13 16 19 22 25 30 34 38 42
68 69 69 68 67 67 65 64 63 61 58 55 53 52 51 50 49 49 48 48 47 46 45 42 40 37 32 26 21 15 11 7 8 11 13 15 19 22 25 30 35 39 42
66 67 68 67 66 66 65 64 62 61 58 56 53 52 50 49 49 49 49 49 48 47 45 42 39 36 32 27 22 16 11 7 6 9 12 15 19 21 25 31 35 38 41
64 65 66 66 65 64 63 63 62 60 58 55 53 52 50 49 49 48 49 49 48 47 46 43 38 34 32 28 22 17 12 7 4 8 12 15 18 22 25 30 35 38 41
63 63 65 64 64 63 62 61 60 59 58 56 53 51 50 49 48 48 48 48 48 47 46 43 38 34 31 28 23 18 13 7 2 6 11 15 19 22 26 30 35 38 41
61 61 63 63 62 61 61 60 59 58 56 55 53 51 49 48 48 48 47 47 47 47 46 43 38 33 30 28 24 18 13 7 0 6 11 15 19 22 26 31 35 38 41
59 59 60 61 60 60 59 59 58 57 56 54 52 51 49 47 47 47 47 46 46 46 45 43 39 33 29 27 24 19 13 6 1 6 11 15 19 22 27 31 35 39 42
57 57 58 59 59 58 58 57 57 56 55 54 52 50 48 47 46 46 46 46 45 45 45 43 39 34 29 26 23 19 13 7 2 6 11 15 19 22 26 31 35 39 42
55 55 55 57 56 56 56 55 55 55 54 53 51 50 47 46 45 45 45 45 44 44 44 42 39 35 30 26 23 19 14 7 2 7 11 15 19 22 26 31 35 39 42
53 53 53 54 54 54 53 54 54 54 53 52 51 49 47 45 45 44 44 44 43 43 43 41 39 36 31 27 23 19 13 8 2 7 11 15 19 22 26 31 35 38 41
51 50 50 51 52 51 51 52 52 52 52 51 50 49 47 45 44 43 43 43 42 42 41 40 38 36 32 28 24 19 14 8 3 6 11 15 19 23 27 31 35 38 40
49 48 48 49 49 49 49 49 50 50 50 50 49 48 46 44 43 42 42 41 41 41 40 39 37 35 32 28 24 19 14 8 3 5 10 15 19 23 27 31 35 37 39
46 45 45 46 46 46 46 47 47 48 49 48 47 47 46 44 42 41 40 40 40 40 39 38 36 34 31 27 24 20 15 9 3 5 9 13 18 22 27 31 34 36 38
44 43 43 43 43 43 44 45 45 46 47 47 46 45 45 43 41 40 39 39 39 39 39 37 35 33 30 27 23 20 15 9 4 5 9 12 16 22 27 30 33 36 38
Wind_Direction
347 346 347 347 347 348 348 348 348 348 348 348 349 349 349 350 350 351 351 351 351 351 351 351 352 352 350 346 328 285 244 226 220 218 220 221 221 221 220 219 217 216 214
348 347 348 348 348 349 349 349 349 349 350 350 350 351 351 352 352 352 353 353 353 352 351 350 350 351 348 341 327 292 253 231 223 219 219 220 221 221 220 218 217 216 214
349 348 348 349 349 350 350 350 350 351 351 351 352 352 353 354 354 354 354 354 354 353 352 350 347 346 344 337 324 297 260 239 226 220 220 220 221 221 219 217 216 215 214
350 349 349 350 350 351 351 351 351 351 352 352 353 353 354 355 355 356 355 356 355 355 353 350 347 343 341 335 323 300 267 244 229 222 220 220 220 220 218 216 215 214 213
350 349 349 350 350 351 352 352 352 352 352 353 354 354 355 355 356 357 356 356 356 356 354 351 346 342 337 331 322 302 273 250 235 225 220 218 218 218 215 213 213 213 212
350 350 349 350 351 351 352 353 353 353 353 353 354 355 355 356 356 357 357 357 357 356 355 352 348 342 335 327 321 303 277 255 239 228 219 216 216 216 213 211 210 210 211
350 350 350 350 351 351 352 353 353 353 354 354 354 355 355 356 357 357 358 358 358 357 355 353 350 344 337 327 318 304 281 259 241 228 219 216 214 213 211 208 207 207 208
349 349 349 350 351 351 352 353 354 354 354 354 354 355 355 356 357 358 358 358 357 357 356 354 351 347 341 332 319 305 284 262 243 228 219 215 213 210 207 205 204 204 204
348 349 349 350 351 351 352 353 354 354 354 355 355 355 355 356 357 358 358 358 357 357 357 355 352 349 343 336 325 309 286 262 242 228 218 214 210 208 205 203 202 201 200
347 348 349 349 350 351 352 353 354 354 355 355 355 355 356 356 357 357 357 358 358 357 357 356 354 351 346 340 331 314 291 263 243 228 218 213 208 206 203 200 198 197 197
346 347 348 348 349 351 352 353 354 355 355 355 355 355 356 356 357 357 357 357 358 358 357 357 355 353 349 343 337 323 298 265 243 229 219 213 209 205 202 197 194 193 194
344 346 347 348 349 350 351 353 354 355 355 355 355 355 355 356 356 357 357 357 357 357 357 357 357 355 352 348 341 330 308 270 243 230 221 213 208 204 200 195 192 190 190
342 344 346 347 348 349 351 352 353 354 355 355 355 355 356 356 356 357 357 357 357 357 357 357 357 357 355 351 347 336 319 283 245 231 220 210 204 201 197 192 189 188 187
340 342 344 346 347 348 350 351 353 354 355 355 355 355 356 356 356 357 357 358 358 357 357 357 357 357 356 354 350 344 328 300 252 228 215 206 200 197 193 190 188 187 186
338 340 343 344 346 347 349 351 352 353 354 355 355 355 356 356 356 357 357 358 358 358 358 357 357 357 357 356 354 350 340 313 260 224 210 202 197 194 190 187 185 185 184
336 338 341 343 344 346 348 350 352 353 354 355 355 355 355 356 356 357 358 358 358 358 358 357 357 357 358 358 356 353 347 333 265 216 204 198 194 190 186 184 183 183 182
333 336 339 341 343 345 347 349 351 352 353 354 355 355 355 356 356 357 357 358 358 359 358 358 358 358 358 358 358 357 354 347 278 197 191 190 188 186 183 182 181 181 181
330 333 336 339 341 343 346 348 350 351 353 353 354 355 355 355 356 357 357 358 358 359 359 359 359 358 358 360 1 0 360 1 49 177 180 182 183 183 181 180 180 179 178
328 331 334 337 340 342 344 347 349 351 352 353 354 354 354 355 356 357 357 358 359 359 360 0 360 359 360 1 3 3 4 10 90 167 173 176 178 180 180 180 179 178 178
325 328 332 335 338 340 343 346 348 350 352 353 354 354 354 355 355 356 357 358 359 360 1 1 2 1 2 3 4 5 7 13 91 163 170 173 176 178 179 179 178 178 178
322 325 329 333 336 338 341 344 347 349 351 352 353 354 354 354 355 356 357 358 359 360 1 2 3 4 4 4 5 7 9 15 94 164 169 173 175 176 177 178 178 178 178
319 322 326 330 334 337 340 343 346 348 350 351 353 354 354 354 355 356 357 358 359 360 1 2 4 4 5 5 6 8 10 17 83 162 170 173 175 176 176 177 177 178 179
315 319 324 328 332 335 338 341 344 347 349 351 352 353 354 354 355 355 357 358 359 360 0 2 3 4 4 6 7 9 12 21 74 156 170 174 175 176 176 177 178 178 179
311 316 321 326 330 333 337 340 343 346 348 350 351 353 353 354 354 355 356 358 359 359 0 1 2 3 4 6 8 10 13 23 72 144 166 173 175 177 177 178 179 179 179
308 313 318 323 328 332 335 339 342 345 347 349 351 352 353 354 354 355 356 357 359 359 0 1 2 3 5 6 8 10 14 23 69 144 160 169 175 177 178 178 179 180 180
304 310 316 321 326 330 334 337 340 343 346 349 350 352 353 354 354 355 356 357 358 359 0 1 3 4 5 6 8 10 14 23 63 141 159 167 173 177 179 179 180 181 182
Height
5637 5623 5607 5591 5575 5558 5541 5525 5509 5494 5479 5465 5450 5436 5422 5408 5393 5380 5366 5353 5341 5330 5319 5310 5303 5296 5290 5286 5284 5283 5283 5284 5288 5294 5302 5310 5320 5330 5340 5351 5364 5380 5398
5631 5616 5601 5585 5569 5553 5536 5520 5505 5490 5475 5461 5447 5433 5419 5405 5391 5377 5365 5352 5341 5330 5319 5311 5304 5297 5292 5288 5285 5283 5283 5284 5287 5292 5298 5305 5313 5322 5331 5342 5354 5368 5385
5625 5611 5596 5580 5564 5548 5532 5516 5500 5486 5472 5457 5443 5430 5416 5403 5389 5376 5363 5351 5340 5329 5320 5311 5304 5298 5293 5289 5286 5284 5283 5284 5286 5290 5295 5301 5308 5315 5324 5334 5345 5358 5373
5620 5605 5590 5575 5559 5543 5528 5512 5497 5483 5469 5455 5441 5427 5414 5401 5388 5375 5363 5351 5340 5329 5319 5311 5304 5298 5293 5289 5286 5283 5282 5283 5285 5287 5291 5297 5303 5310 5318 5327 5338 5349 5363
5616 5601 5586 5571 5555 5539 5524 5508 5494 5479 5465 5452 5439 5425 5412 5399 5387 5374 5362 5351 5340 5329 5319 5310 5303 5297 5292 5288 5284 5282 5282 5282 5283 5285 5288 5293 5299 5305 5313 5321 5331 5341 5354
5611 5596 5582 5567 5551 5536 5521 5505 5491 5477 5463 5450 5437 5424 5411 5398 5385 5373 5361 5350 5339 5329 5319 5310 5302 5296 5291 5286 5283 5281 5280 5279 5281 5282 5285 5290 5295 5301 5308 5316 5324 5334 5348
5607 5592 5578 5563 5548 5533 5518 5503 5488 5475 5461 5448 5435 5422 5410 5397 5385 5373 5361 5350 5339 5329 5319 5310 5302 5295 5289 5285 5281 5279 5277 5277 5278 5280 5283 5286 5291 5297 5304 5312 5319 5328 5340
5603 5589 5574 5559 5545 5530 5515 5500 5486 5472 5459 5446 5434 5421 5409 5397 5385 5373 5362 5350 5340 5329 5319 5310 5301 5294 5288 5283 5280 5277 5275 5274 5275 5277 5280 5283 5288 5293 5300 5307 5315 5324 5335
5600 5585 5571 5556 5542 5527 5512 5498 5484 5470 5457 5444 5432 5420 5408 5396 5384 5373 5361 5351 5340 5329 5319 5309 5300 5293 5286 5281 5277 5274 5273 5272 5273 5274 5277 5280 5285 5290 5296 5303 5311 5320 5331
5596 5582 5568 5553 5539 5524 5510 5496 5481 5468 5455 5442 5430 5418 5407 5395 5383 5372 5361 5350 5340 5329 5319 5309 5300 5291 5285 5279 5275 5272 5270 5270 5270 5272 5275 5278 5282 5287 5293 5299 5307 5316 5326
5592 5579 5565 5550 5536 5522 5507 5493 5480 5466 5454 5441 5429 5417 5405 5394 5383 5371 5360 5349 5338 5328 5318 5309 5299 5291 5283 5278 5273 5270 5268 5268 5268 5270 5272 5276 5280 5284 5290 5296 5304 5312 5322
5589 5575 5562 5548 5533 5519 5505 5491 5478 5465 5452 5440 5428 5416 5404 5393 5382 5371 5360 5349 5338 5328 5318 5308 5299 5290 5282 5277 5272 5269 5267 5266 5267 5268 5270 5273 5277 5282 5287 5293 5301 5310 5319
5585 5572 5558 5545 5531 5517 5503 5490 5476 5463 5451 5439 5427 5416 5404 5393 5382 5371 5360 5349 5338 5328 5318 5307 5298 5289 5282 5276 5271 5267 5265 5264 5265 5266 5268 5271 5275 5280 5285 5291 5299 5308 5317
5581 5568 5555 5542 5528 5515 5501 5488 5475 5462 5450 5438 5426 5415 5404 5393 5382 5372 5361 5350 5339 5328 5318 5308 5298 5290 5282 5276 5271 5267 5264 5263 5263 5264 5267 5270 5273 5278 5284 5290 5297 5306 5316
5576 5564 5552 5539 5526 5512 5499 5486 5473 5460 5448 5436 5425 5414 5403 5393 5382 5371 5360 5349 5338 5328 5317 5308 5299 5290 5283 5276 5271 5267 5264 5262 5262 5263 5265 5268 5272 5277 5282 5289 5297 5305 5315
5571 5560 5548 5535 5523 5510 5496 5483 5470 5458 5446 5434 5422 5412 5401 5390 5379 5369 5358 5347 5337 5327 5317 5307 5298 5291 5283 5277 5271 5267 5263 5261 5261 5262 5264 5267 5271 5276 5282 5289 5296 5305 5315
5566 5555 5544 5532 5520 5507 5494 5481 5469 5456 5444 5432 5421 5410 5399 5389 5379 5368 5358 5347 5337 5327 5317 5307 5298 5290 5283 5277 5271 5267 5263 5261 5261 5262 5264 5267 5271 5276 5282 5289 5297 5305 5315
5561 5550 5539 5528 5516 5504 5492 5479 5467 5455 5443 5431 5420 5409 5398 5388 5378 5368 5357 5347 5337 5326 5317 5307 5298 5290 5284 5277 5272 5267 5264 5262 5261 5262 5265 5268 5272 5277 5283 5290 5297 5306 5315
5554 5545 5534 5524 5512 5501 5489 5477 5465 5453 5441 5430 5419 5408 5397 5387 5377 5367 5357 5347 5337 5327 5317 5307 5298 5291 5284 5278 5272 5268 5265 5263 5262 5264 5266 5269 5273 5278 5284 5291 5298 5307 5316
5548 5539 5529 5519 5509 5497 5486 5474 5463 5451 5440 5429 5418 5408 5397 5387 5377 5367 5357 5347 5337 5327 5318 5308 5299 5291 5284 5279 5274 5269 5266 5264 5264 5265 5267 5271 5275 5280 5286 5292 5300 5308 5317
5541 5533 5524 5514 5504 5494 5483 5472 5460 5449 5438 5427 5417 5406 5396 5386 5377 5367 5357 5347 5338 5328 5319 5309 5301 5293 5286 5280 5275 5271 5267 5266 5265 5267 5269 5272 5277 5282 5287 5294 5301 5309 5318
5534 5526 5518 5509 5500 5490 5479 5469 5458 5447 5436 5426 5415 5405 5395 5385 5376 5366 5357 5347 5338 5329 5320 5311 5302 5294 5287 5281 5276 5272 5269 5267 5267 5268 5270 5274 5278 5283 5289 5295 5303 5311 5319
5526 5519 5512 5503 5495 5485 5475 5465 5455 5445 5434 5424 5414 5404 5394 5384 5375 5366 5356 5347 5338 5329 5321 5312 5304 5296 5289 5283 5278 5274 5271 5269 5269 5270 5272 5275 5279 5284 5290 5297 5304 5312 5320
5518 5512 5505 5498 5489 5481 5471 5462 5452 5442 5432 5422 5412 5402 5393 5383 5374 5365 5356 5347 5339 5330 5321 5313 5305 5298 5291 5285 5280 5275 5272 5271 5270 5271 5273 5276 5281 5286 5291 5298 5305 5313 5321
5510 5504 5498 5491 5484 5476 5467 5458 5449 5439 5430 5420 5410 5401 5392 5382 5373 5365 5356 5347 5339 5330 5322 5314 5306 5299 5292 5286 5281 5277 5274 5272 5272 5273 5275 5278 5282 5287 5292 5299 5306 5314 5322
5501 5497 5491 5485 5478 5471 5463 5454 5445 5436 5427 5418 5409 5399 5390 5381 5372 5364 5356 5347 5339 5331 5322 5314 5307 5300 5294 5288 5283 5279 5276 5274 5273 5274 5276 5279 5283 5287 5293 5300 5307 5314 5322